Location: Unspecified
(0.0000°N, 0.0000°E)
Time: 18:11:44
(UTC+00:00)

STARLINK 1055 - Pass Details

Date: 16 January 2020
Orbit: 548 x 551 km, 53.0° (Epoch: 17 January)

Event Time Altitude Azimuth Distance (km) Brightness Sun altitude
Rises 18:45:16 0° 328° (NNW) 2,700 7.3 -8.3°
Reaches altitude 10° 18:47:29 10° 329° (NNW) 1,810 6.4 -8.8°
Maximum altitude 18:51:35 82° 55° (NE) 557 3.5 -9.8°
Drops below altitude 10° 18:55:44 10° 144° (SE) 1,819 6.1 -10.7°
Sets 18:57:58 0° 144° (SE) 2,715 7.0 -11.3°
